Weather History for KORB - February, 2013

Change the Weather History Date:

Wednesday, February 27, 2013

  Actual Average Record
Temperature  
Mean Temperature 22 °F -  
Max Temperature 37 °F 23 °F 42 °F (2004)
Min Temperature 8 °F 5 °F -32 °F (2014)
Degree Days  
Heating Degree Days 42    
Moisture  
Dew Point 16 °F    
Average Humidity 73    
Maximum Humidity 93    
Minimum Humidity 48    
Precipitation  
Precipitation 0.00 in - - ()
Sea Level Pressure  
Sea Level Pressure 29.99 in    
Wind  
Wind Speed 2 mph (North)    
Max Wind Speed 7 mph    
Max Gust Speed -    
Visibility 10 miles    
Events      
Averages and records for this station are not official NWS values.
T = Trace of Precipitation, MM = Missing Value Source: NWS Daily Summary

Daily Weather History Graph

Daily Weather History Graph

Search for Another Location

Airport or City:

Trip Planner

Search our weather history database for the weather conditions in past years. The results will help you decide how hot, cold, wet, or windy it might be!

Date:

Astronomy

Feb. 27, 2013 Rise Set
Actual Time 6:55 AM CST 5:53 PM CST
Civil Twilight 6:24 AM CST 6:24 PM CST
Nautical Twilight 5:48 AM CST 7:00 PM CST
Astronomical Twilight 5:12 AM CST 7:36 PM CST
Moon 8:30 PM CST (2/27) 7:18 AM CST (2/27)
Length of Visible Light 12h 00m
Length of Day
10h 57m
Waning Gibbous, 96% of the Moon is Illuminated
Feb 27
Waning Gibbous
Mar 4
Last Quarter
Mar 11
New
Mar 19
First Quarter
Mar 27
Full

Hourly Weather History & Observations

Time (CST) Temp. Windchill Dew Point Humidity Pressure Visibility Wind Dir Wind Speed Gust Speed Precip Events Conditions
12:13 AM 19.4 °F - 15.8 °F 86% 29.97 in 10.0 mi Calm Calm - N/A   Clear
12:33 AM 19.4 °F - 14.0 °F 80% 29.96 in 10.0 mi Calm Calm - N/A   Clear
12:53 AM 17.6 °F - 12.2 °F 79% 29.96 in 10.0 mi Calm Calm - N/A   Clear
1:14 AM 15.8 °F - 10.4 °F 79% 29.96 in 10.0 mi Calm Calm - N/A   Clear
1:34 AM 17.6 °F - 14.0 °F 86% 29.96 in 10.0 mi Calm Calm - N/A   Clear
1:53 AM 17.6 °F - 12.2 °F 79% 29.95 in 10.0 mi Calm Calm - N/A   Clear
2:13 AM 17.6 °F - 15.8 °F 93% 29.95 in 10.0 mi Calm Calm - N/A   Clear
2:53 AM 17.6 °F - 15.8 °F 93% 29.94 in 10.0 mi Calm Calm - N/A   Clear
3:13 AM 17.6 °F - 12.2 °F 79% 29.94 in 10.0 mi Calm Calm - N/A   Clear
3:33 AM 14.0 °F - 10.4 °F 86% 29.95 in 10.0 mi Calm Calm - N/A   Clear
3:53 AM 17.6 °F - 14.0 °F 86% 29.94 in 10.0 mi Calm Calm - N/A   Clear
4:13 AM 10.4 °F - 6.8 °F 85% 29.94 in 10.0 mi Calm Calm - N/A   Clear
4:33 AM 15.8 °F - 12.2 °F 86% 29.95 in 10.0 mi Calm Calm - N/A   Clear
4:53 AM 15.8 °F - 12.2 °F 86% 29.95 in 10.0 mi Calm Calm - N/A   Clear
5:13 AM 12.2 °F - 10.4 °F 92% 29.95 in 10.0 mi Calm Calm - N/A   Clear
5:33 AM 17.6 °F - 15.8 °F 93% 29.95 in 10.0 mi Calm Calm - N/A   Clear
5:53 AM 12.2 °F - 8.6 °F 85% 29.95 in 10.0 mi Calm Calm - N/A   Clear
6:13 AM 14.0 °F - 12.2 °F 93% 29.95 in 10.0 mi Calm Calm - N/A   Clear
6:33 AM 8.6 °F - 6.8 °F 92% 29.96 in 10.0 mi Calm Calm - N/A   Clear
6:53 AM 10.4 °F - 8.6 °F 92% 29.96 in 10.0 mi Calm Calm - N/A   Clear
7:14 AM 12.2 °F - 10.4 °F 92% 29.97 in 10.0 mi Calm Calm - N/A   Clear
7:33 AM 12.2 °F - 8.6 °F 85% 29.96 in 10.0 mi Calm Calm - N/A   Clear
7:53 AM 14.0 °F - 10.4 °F 86% 29.96 in 10.0 mi Calm Calm - N/A   Clear
8:13 AM 15.8 °F 10.2 °F 12.2 °F 86% 29.97 in 10.0 mi NW 3.5 mph - N/A   Clear
8:33 AM 17.6 °F - 14.0 °F 86% 29.97 in 10.0 mi Calm Calm - N/A   Clear
9:13 AM 26.6 °F - 19.4 °F 74% 29.97 in 10.0 mi Calm Calm - N/A   Clear
9:33 AM 30.2 °F 25.4 °F 19.4 °F 64% 29.97 in 10.0 mi NNE 4.6 mph - N/A   Clear
9:53 AM 30.2 °F 25.4 °F 19.4 °F 64% 29.97 in 10.0 mi NE 4.6 mph - N/A   Clear
10:13 AM 30.2 °F 25.4 °F 19.4 °F 64% 29.97 in 10.0 mi NE 4.6 mph - N/A   Clear
10:33 AM 32.0 °F - 19.4 °F 60% 29.96 in 10.0 mi Calm Calm - N/A   Clear
10:53 AM 33.8 °F 29.6 °F 19.4 °F 56% 29.95 in 10.0 mi NNW 4.6 mph - N/A   Clear
11:14 AM 33.8 °F 29.6 °F 19.4 °F 56% 29.95 in 10.0 mi NW 4.6 mph - N/A   Clear
11:33 AM 35.6 °F 32.8 °F 19.4 °F 52% 29.95 in 10.0 mi North 3.5 mph - N/A   Clear
11:53 AM 37.4 °F 32.8 °F 19.4 °F 48% 29.95 in 10.0 mi NNW 5.8 mph - N/A   Clear
12:13 PM 35.6 °F 32.8 °F 19.4 °F 52% 29.95 in 10.0 mi North 3.5 mph - N/A   Clear
12:33 PM 37.4 °F 32.8 °F 19.4 °F 48% 29.95 in 10.0 mi North 5.8 mph - N/A   Clear
12:53 PM 35.6 °F 30.7 °F 19.4 °F 52% 29.96 in 10.0 mi NNE 5.8 mph - N/A   Clear
1:13 PM 33.8 °F 27.7 °F 19.4 °F 56% 29.96 in 10.0 mi NE 6.9 mph - N/A   Clear
1:33 PM 33.8 °F 29.6 °F 19.4 °F 56% 29.97 in 10.0 mi North 4.6 mph - N/A   Clear
1:53 PM 33.8 °F 28.6 °F 19.4 °F 56% 29.97 in 10.0 mi NE 5.8 mph - N/A   Clear
2:13 PM 32.0 °F 28.7 °F 19.4 °F 60% 29.97 in 10.0 mi NNW 3.5 mph - N/A   Mostly Cloudy
2:33 PM 30.2 °F 26.7 °F 19.4 °F 64% 29.98 in 10.0 mi NNE 3.5 mph - N/A   Overcast
2:53 PM 30.2 °F 26.7 °F 19.4 °F 64% 29.98 in 10.0 mi North 3.5 mph - N/A   Overcast
3:13 PM 30.2 °F 26.7 °F 19.4 °F 64% 29.99 in 10.0 mi North 3.5 mph - N/A   Overcast
3:34 PM 30.2 °F 24.3 °F 19.4 °F 64% 30.00 in 10.0 mi NNE 5.8 mph - N/A   Overcast
3:53 PM 30.2 °F 24.3 °F 19.4 °F 64% 30.00 in 10.0 mi North 5.8 mph - N/A   Overcast
4:13 PM 30.2 °F - 19.4 °F 64% 30.01 in 10.0 mi Calm Calm - N/A   Overcast
4:33 PM 30.2 °F - 19.4 °F 64% 30.01 in 10.0 mi Calm Calm - N/A   Overcast
4:53 PM 30.2 °F 25.4 °F 19.4 °F 64% 30.02 in 10.0 mi North 4.6 mph - N/A   Overcast
5:14 PM 30.2 °F 25.4 °F 19.4 °F 64% 30.01 in 10.0 mi NNE 4.6 mph - N/A   Overcast
5:33 PM 28.4 °F 23.3 °F 19.4 °F 69% 30.02 in 10.0 mi North 4.6 mph - N/A   Overcast
5:53 PM 28.4 °F 22.2 °F 19.4 °F 69% 30.03 in 10.0 mi North 5.8 mph - N/A   Overcast
6:13 PM 28.4 °F 24.6 °F 19.4 °F 69% 30.04 in 10.0 mi NNW 3.5 mph - N/A   Overcast
6:33 PM 28.4 °F 23.3 °F 19.4 °F 69% 30.04 in 10.0 mi NNE 4.6 mph - N/A   Overcast
6:53 PM 28.4 °F 23.3 °F 19.4 °F 69% 30.05 in 10.0 mi North 4.6 mph - N/A   Overcast
7:13 PM 28.4 °F - 19.4 °F 69% 30.05 in 10.0 mi Calm Calm - N/A   Overcast
7:33 PM 28.4 °F - 19.4 °F 69% 30.05 in 10.0 mi Calm Calm - N/A   Overcast
7:53 PM 26.6 °F 22.6 °F 19.4 °F 74% 30.06 in 10.0 mi North 3.5 mph - N/A   Overcast
8:13 PM 26.6 °F 22.6 °F 19.4 °F 74% 30.06 in 10.0 mi NNE 3.5 mph - N/A   Overcast
8:33 PM 26.6 °F 21.2 °F 19.4 °F 74% 30.07 in 10.0 mi NNE 4.6 mph - N/A   Overcast
8:53 PM 26.6 °F 22.6 °F 19.4 °F 74% 30.07 in 10.0 mi NNE 3.5 mph - N/A   Overcast
9:13 PM 26.6 °F 21.2 °F 17.6 °F 69% 30.07 in 10.0 mi North 4.6 mph - N/A   Overcast
9:33 PM 26.6 °F 22.6 °F 17.6 °F 69% 30.08 in 10.0 mi NNE 3.5 mph - N/A   Overcast
9:53 PM 24.8 °F - 17.6 °F 74% 30.08 in 10.0 mi Calm Calm - N/A   Overcast
10:13 PM 24.8 °F 20.5 °F 17.6 °F 74% 30.08 in 10.0 mi NE 3.5 mph - N/A   Overcast
10:34 PM 24.8 °F 17.9 °F 17.6 °F 74% 30.08 in 10.0 mi NE 5.8 mph - N/A   Overcast
10:53 PM 24.8 °F 19.1 °F 17.6 °F 74% 30.09 in 10.0 mi NE 4.6 mph - N/A   Overcast
11:13 PM 24.8 °F - 17.6 °F 74% 30.09 in 10.0 mi Calm Calm - N/A   Overcast
11:33 PM 24.8 °F 20.5 °F 17.6 °F 74% 30.09 in 10.0 mi NNE 3.5 mph - N/A   Overcast
11:53 PM 24.8 °F - 17.6 °F 74% 30.09 in 10.0 mi Calm Calm - N/A   Overcast